Retour au catalogue

ARIANE 5 R/B

ActifHEO
NORAD 45029·ROCKET BODY·🇫🇷 France

Lancé Jan 16, 2020 depuis Guiana Space Centre

Loading…

Prochains Passages (prochaines 24 heures)

TLE

FraisSource: Space-Track

Époque: Sep 14, 2026, 07:36 UTC

1 45029U 20005D   26257.31701128  .00010057  00000-0  61972-3 0  9993
2 45029   5.8447  35.2687 6411813 224.4450  61.4400  3.48693419 54018

Suivez ARIANE 5 R/B en temps réel avec AllMySat

Download on the App Store